Regional Weather Roundup
Issued by NWS Newport/Morehead, NC

Current Version | Previous Version | Graphics & Text | Print | Product List | Glossary Off
Versions: 1 2 3 4 5 6 7 8 9 10 11 12 13 14 15 16 17 18 19 20 21 22 23 24 25 26 27 28 29 30 31 32 33 34 35 36 37 38 39 40 41 42 43 44 45 46 47 48 49 50

000
ASUS42 KMHX 251822
RWRMHX
WEATHER ROUNDUP FOR EASTERN NORTH CAROLINA
NATIONAL WEATHER SERVICE NEWPORT/MOREHEAD CITY NC
200 PM EDT FRI JUL 25 2014

NOTE: "FAIR" INDICATES FEW OR NO CLOUDS BELOW 12,000 FEET
WITH NO SIGNIFICANT WEATHER AND/OR OBSTRUCTIONS TO VISIBILITY

NCZ015>017-031-032-045>047-102-103-251900-
NORTH COAST

CITY           SKY/WX    TMP DP  RH WIND       PRES   REMARKS
EDENTON        MOSUNNY   82  65  57 CALM      30.03F
ELIZABETH CITY MOSUNNY   82  63  52 N8        30.04F
KITTY HAWK     CLEAR     78  63  58 N5G16     30.04S
MANTEO         NOT AVBL

$$

NCZ045>047-081-094-103-104-251900-
CENTRAL COAST

CITY           SKY/WX    TMP DP  RH WIND       PRES   REMARKS
FRISCO         SUNNY     82  70  66 NE8       30.04S
SWANQUARTER      N/A     82 N/A N/A E1G8      30.00S

$$

NCZ095-097-098-100-101-251900-
SOUTHERN COAST

CITY           SKY/WX    TMP DP  RH WIND       PRES   REMARKS
BEAUFORT       CLOUDY    83  68  60 NE5       30.04S
CEDAR ISLAND     N/A     81 N/A N/A NE5       30.09S
JACKSONVILLE   PTSUNNY   81  70  69 E5        30.04F
NEWPORT        NOT AVBL
PINEY ISLAND   CLEAR     80  72  76 E6        30.04S
WILMINGTON     PTSUNNY   80  72  76 VRB6      30.04S


$$

NCZ011>013-027>030-043-044-078>080-089-090>093-098-251900-
COASTAL PLAIN

CITY           SKY/WX    TMP DP  RH WIND       PRES   REMARKS
AHOSKIE        SUNNY     81  62  53 N7        30.04F
CLINTON        PTSUNNY   81  71  72 NE3       30.04F
ELIZABETHTOWN  PTSUNNY   81  69  65 CALM      30.02F
GOLDSBORO      PTSUNNY   82  71  70 SE7       30.02F
GREENVILLE     CLOUDY    81  66  61 NE5       30.06S
HAVELOCK       MOSUNNY   83  68  60 CALM      30.05S
KENANSVILLE    CLOUDY    78  67  67 CALM      30.05F
KINSTON        PTSUNNY   82  68  61 CALM      30.05F
NEW BERN       PTSUNNY   83  69  62 VRB3      30.05S
RICHLANDS      MOSUNNY   82  66  57 SE5       30.04S
ROANOKE RAPIDS NOT AVBL
ROCKY MOUNT    SUNNY     84  65  52 NE7       30.04F
WASHINGTON     SUNNY     80  69  67 NE7       30.04F
WHITEVILLE     CLOUDY    79  71  77 E5        30.02F

$$

AMZ130-135-150-152-154-156-158-170-250-252-270-ANZ085-086-088-633-658-670-251900-
MARINE OBSERVATIONS

STATION/POSITION TIME  TEMP    WIND        PRES    WAVE   SWELL
                       AIR SEA DIR/SP/G            HT/PER HT/PER
                 (UTC) (F)     (DEG/KT/KT) (MB)    (FT/S) (FT/S)
CHESAPEAKE LIGHT NOT AVBL
BUOY 44014       1800   75 78  350/ 14/ 16 1016.7    3/ 4   2/ 8
DUCK             1800   75 75   10/ 15/ 16 1016.4
2E DUCK          1800                        N/A     2/ 4
OREGON INLET     1800   78 77   10/ 10/ 15 1017.3
BUOY 44095       1800      77                N/A     2/ 8
20E OREGON INLET 1700          330/ 12/ 16   N/A
HATTERAS CG      1800   78 80   10/  9/ 11 1017.7
DIAMOND BUOY     1800          VRB  8/  8  1017.1    2/ 7   2/ 7
CAPE LOOKOUT     1800   77      80/  9/ 10 1017.4
BEAUFORT LAB     1800   81 81   60/  4/  9 1016.8
30 SE NEW RIVER  1800   77 81   70/ 10/ 12 1017.8    4/ 6   3/ 6
5 SE WRIGHTSVILL 1700   73 81   80/ 12/ 14   N/A
BUOY 41002       1749   78 82  280/ 10/ 12 1019.1    4/ 8   3/ 8
BUOY 41004       1800   82 83  210/ 10/ 12 1016.1    3/ 5   3/ 5

$$


USA.gov is the U.S. government's official web portal to all federal, state and local government web resources and services.